Theta_e
308 308 308 308 313 320 321 322 325 319 319 321 315 320 318 316 319 322 324 322 324 320 318 317 318 319 319 314 315 316 317 318 320 319 317 317 317 323 325 327 329 325 329 331
307 308 308 308 312 316 317 325 325 322 317 323 322 318 321 320 325 325 324 321 319 318 319 321 317 317 315 313 316 319 317 319 320 321 320 319 321 319 318 320 323 328 327 328
307 307 307 308 310 316 318 324 327 324 320 319 320 322 325 324 324 325 324 323 320 320 319 318 320 319 318 315 316 323 320 319 320 320 321 322 323 322 320 320 324 325 324 328
307 308 308 308 309 315 317 323 327 321 329 327 328 326 326 328 329 326 325 323 323 322 322 320 319 320 319 319 329 319 319 322 321 320 318 321 323 323 322 323 323 322 323 327
308 308 307 308 309 314 317 325 327 324 327 325 327 325 328 328 326 326 326 327 326 324 324 321 322 320 320 323 325 319 316 323 321 321 319 321 321 322 325 326 323 323 331 332
309 308 307 307 308 311 317 319 320 324 324 327 327 328 328 328 325 326 323 326 327 324 324 318 320 317 317 317 322 322 320 323 323 322 321 321 322 322 328 335 336 334 337 336
309 309 309 308 307 309 312 317 320 326 326 325 326 327 327 327 326 328 325 325 326 323 318 319 315 315 316 316 318 318 322 324 323 322 323 323 325 333 327 332 343 343 344 347
309 310 310 310 308 307 309 313 318 323 324 322 323 325 325 325 325 325 325 325 324 319 321 324 324 321 320 319 318 318 318 322 323 323 323 323 338 341 341 337 342 344 346 349
310 310 311 311 311 308 307 309 314 318 322 322 321 323 324 326 326 325 324 321 319 319 320 319 324 329 324 321 318 317 318 320 323 324 322 322 322 338 338 338 334 346 347 347
310 311 311 311 311 311 307 308 311 316 319 319 321 324 325 322 322 323 324 323 323 315 320 324 325 326 323 322 322 322 322 321 323 324 323 323 322 337 334 334 327 345 346 344
311 312 311 311 311 312 308 308 311 315 318 318 319 320 322 322 322 327 324 324 320 321 323 329 326 324 326 326 324 321 323 325 323 323 323 324 328 332 336 333 336 345 346 343
311 312 311 311 312 312 311 309 308 310 314 317 315 316 317 319 320 321 321 323 321 323 322 324 323 324 320 325 330 323 326 321 324 323 324 323 327 332 332 332 341 345 345 341
311 311 312 312 312 312 312 309 309 311 315 316 316 316 315 316 317 318 323 319 319 320 316 320 325 326 321 322 322 324 321 321 321 323 330 332 334 332 332 333 338 341 341 339
310 311 311 312 312 312 312 310 310 312 314 316 316 314 315 315 315 316 317 319 316 317 317 321 324 325 321 324 322 322 322 324 328 328 331 331 331 332 331 333 334 336 336 334
309 310 312 312 312 312 312 312 310 310 313 317 317 313 314 314 315 315 316 317 319 321 321 321 322 320 320 320 320 323 321 324 325 325 329 329 327 331 329 333 334 334 332 331
309 310 311 312 312 312 312 313 312 311 310 313 317 313 314 315 313 315 316 317 319 320 320 321 321 319 323 326 326 323 322 320 321 323 327 325 328 330 329 333 332 329 329 328
310 313 311 311 311 312 311 313 311 311 311 313 315 316 314 315 316 316 317 317 319 320 320 320 320 321 323 324 324 320 318 320 321 321 326 328 328 330 326 326 324 324 325 325
310 313 313 312 312 312 312 312 311 311 311 312 314 316 318 317 320 320 318 320 320 320 321 319 320 316 320 326 322 321 318 320 319 322 324 326 328 327 324 324 324 324 324 324
311 312 313 313 313 313 312 312 311 312 312 314 315 318 320 317 319 318 319 319 321 319 322 322 322 319 322 320 321 322 321 322 322 322 324 327 328 326 325 325 324 324 325 324
311 312 312 315 311 312 311 312 312 313 313 314 316 317 318 317 318 318 318 318 318 321 321 316 319 321 318 318 315 317 321 319 320 324 327 329 328 326 326 325 324 324 324 324
310 311 313 309 311 313 313 317 316 316 317 316 318 318 319 316 318 319 318 319 320 320 320 320 320 320 318 317 315 318 319 319 320 322 323 324 325 325 325 325 323 323 323 323
308 308 308 309 312 314 317 319 318 319 318 318 320 320 319 319 317 320 320 322 320 323 319 320 321 321 319 319 316 314 315 316 317 321 321 323 322 322 321 320 319 319 320 321
310 310 314 315 315 316 319 320 321 321 319 319 318 319 319 320 319 321 321 321 322 320 322 322 322 320 319 317 315 314 314 315 315 316 316 317 317 317 317 317 316 317 318 318
314 318 314 317 319 319 319 320 320 318 318 317 317 321 321 320 320 320 322 321 321 322 323 324 321 317 317 315 314 314 315 315 316 316 316 316 316 316 316 316 317 317 318 317
317 317 318 317 316 315 315 316 317 315 313 315 319 318 319 320 320 320 321 322 322 320 321 319 317 316 315 315 314 315 315 316 316 316 317 316 317 317 318 318 318 318 318 318
317 316 317 316 316 316 315 315 315 313 312 312 312 316 319 319 317 322 321 321 320 319 315 314 315 316 314 314 314 315 316 316 317 316 316 317 317 318 318 317 318 318 318 318
316 317 314 315 315 316 315 313 313 309 313 315 314 316 317 315 318 320 316 318 316 313 314 314 314 314 314 314 314 315 315 316 316 316 317 316 316 316 317 317 315 316 318 319
Wind_Speed
24 25 26 25 26 27 17 5 3 2 3 2 0 3 4 1 2 2 3 2 4 5 6 8 8 11 4 7 11 10 8 4 11 13 1 4 2 5 10 9 8 1 5 11
23 23 23 20 20 22 9 4 3 3 1 4 4 2 3 3 3 3 1 3 5 3 3 4 7 6 3 8 12 11 10 5 7 4 4 3 5 5 3 2 1 10 12 10
24 23 22 21 15 15 9 3 3 1 2 3 2 3 4 4 3 3 3 3 1 2 4 6 2 6 2 7 8 3 10 6 10 11 8 3 6 9 7 9 11 13 11 12
21 20 19 18 11 10 7 1 1 2 1 1 4 3 1 4 4 3 3 4 4 1 3 2 6 5 3 3 8 5 7 9 9 10 6 8 9 13 12 10 8 9 10 10
23 20 17 15 8 5 2 2 2 0 2 3 2 2 3 10 10 6 10 8 3 2 4 2 4 4 4 6 7 7 4 8 6 8 6 10 9 11 11 8 5 8 7 9
24 22 18 14 10 3 3 2 2 2 3 1 2 3 4 4 1 2 1 3 2 5 7 3 9 9 9 5 3 10 7 8 6 16 7 6 9 13 13 6 7 4 7 3
24 22 19 15 10 9 5 3 2 2 5 7 8 6 3 3 2 3 2 6 3 2 8 11 4 7 7 8 10 7 7 6 5 11 8 15 3 2 10 11 5 8 2 8
24 22 19 17 13 10 11 8 4 2 5 10 9 9 10 9 5 5 8 12 9 7 8 5 5 4 4 6 5 9 7 8 6 8 12 4 3 5 9 11 8 8 9 13
24 23 20 18 17 12 15 17 14 4 1 5 11 9 11 7 9 7 8 7 5 4 4 4 6 10 8 6 6 2 6 2 9 5 14 16 9 11 8 6 7 12 14 18
25 24 20 17 18 18 15 11 21 8 4 3 4 3 5 1 2 2 3 3 1 1 4 6 8 13 6 7 7 6 5 4 12 9 8 4 1 7 7 9 4 17 18 20
26 24 20 17 16 19 20 12 22 10 2 3 3 3 4 3 3 3 1 2 2 2 4 5 5 5 10 10 9 5 7 7 5 3 8 12 6 7 6 1 3 16 19 19
29 26 20 13 13 17 24 6 17 19 6 2 4 8 14 10 6 1 1 2 1 0 2 1 0 4 3 8 12 5 10 5 4 6 7 3 1 3 5 5 3 12 17 17
31 26 20 9 8 14 25 12 11 13 2 5 8 12 26 17 17 15 4 1 2 1 1 2 2 4 2 5 5 5 3 3 6 6 5 9 8 5 1 3 5 7 12 14
25 27 23 13 7 10 21 16 16 11 1 3 5 5 5 8 12 18 19 13 1 2 1 2 3 3 1 2 3 3 0 6 6 3 4 5 7 10 8 4 7 11 13 12
24 21 25 15 6 5 12 20 17 19 3 2 2 8 9 10 10 12 14 16 7 3 2 2 3 2 2 2 3 5 3 4 5 8 8 3 3 10 14 9 12 15 15 11
26 17 15 16 8 5 6 2 13 20 20 3 2 4 4 6 9 9 10 10 5 3 3 3 3 3 3 3 4 7 11 7 7 6 5 9 11 13 14 12 13 14 15 12
24 15 7 7 6 1 0 0 1 2 18 2 2 3 3 5 4 4 4 8 3 2 2 3 2 3 3 3 9 5 5 13 12 4 10 7 9 9 13 12 13 16 18 13
20 11 6 5 4 3 2 4 5 5 3 1 2 4 2 8 3 4 5 5 4 4 3 2 2 1 2 4 8 14 11 6 8 11 7 9 11 15 15 16 14 14 12 9
13 10 4 1 2 2 3 3 6 4 3 2 3 2 1 1 2 2 3 3 4 1 4 4 4 3 5 7 12 16 13 6 6 10 10 18 19 18 17 15 13 13 11 9
11 3 1 1 3 1 2 1 1 1 2 2 2 2 2 1 0 1 2 1 1 1 1 3 2 3 10 12 12 11 10 9 14 15 12 14 19 17 18 15 12 10 10 11
6 4 2 4 2 2 2 2 2 2 2 2 2 2 2 2 2 2 2 1 2 2 3 3 3 3 5 6 6 5 8 9 7 7 8 11 16 16 14 11 10 12 13 11
9 10 7 3 1 2 2 2 0 1 1 2 4 2 2 1 3 3 3 2 3 2 6 3 3 2 5 9 6 1 6 6 4 19 11 12 13 16 14 13 13 14 14 12
1 2 2 1 1 3 3 4 2 2 1 3 3 3 2 1 1 1 1 1 0 1 3 2 2 6 8 9 6 2 6 8 8 11 15 18 16 16 17 15 13 12 12 11
1 2 4 2 1 3 2 4 3 3 3 6 5 2 2 1 2 1 3 2 1 3 3 2 3 8 12 10 6 1 6 7 9 11 14 15 15 14 11 12 12 12 12 13
1 1 2 3 2 2 4 4 4 2 4 4 3 2 1 2 2 2 2 1 3 3 2 2 6 10 8 7 3 5 8 10 10 11 12 15 16 14 12 10 10 10 11 12
2 2 1 0 2 3 4 4 4 3 5 2 1 2 1 2 2 2 4 2 3 2 3 4 6 5 3 2 1 6 10 13 14 16 16 14 15 13 12 9 7 6 8 11
2 2 1 1 1 2 2 2 4 4 3 2 1 2 2 3 1 2 3 2 2 3 4 4 4 4 5 5 8 10 13 14 15 14 18 14 15 13 12 10 7 7 8 10
Wind_Direction
347 346 348 351 356 353 359 356 306 5 355 197 297 194 195 228 251 200 242 240 237 223 193 184 209 211 240 171 148 176 196 225 236 245 77 296 299 240 214 230 207 230 270 253
345 346 347 354 5 10 349 343 281 350 286 224 215 238 229 236 219 225 205 253 224 189 232 219 214 199 187 166 172 178 174 215 224 200 170 163 211 186 185 125 163 219 243 251
340 342 344 347 3 3 360 310 304 295 56 357 246 195 228 234 223 232 198 269 235 206 228 222 238 223 233 178 208 175 171 177 215 229 238 158 183 188 190 216 234 234 234 246
336 337 338 339 355 353 349 234 295 355 310 109 331 273 235 193 193 220 218 164 92 51 267 216 219 225 215 192 165 150 195 224 207 230 228 208 198 184 178 196 229 237 249 218
328 329 329 330 343 336 257 284 285 160 285 284 236 221 243 241 234 231 253 249 306 221 228 287 332 333 226 220 176 187 192 227 197 232 201 212 214 196 189 207 187 231 240 250
323 319 319 317 320 296 269 245 248 257 250 224 223 236 240 243 241 212 352 114 273 228 241 297 291 263 273 271 249 199 185 184 195 234 210 202 236 209 197 192 198 209 210 233
326 316 305 303 290 230 266 268 303 244 255 238 242 259 267 234 258 295 286 319 293 20 328 294 256 235 263 229 216 212 172 187 208 233 167 226 203 239 231 216 195 198 173 164
327 321 299 282 277 251 236 240 234 252 259 250 256 252 259 268 269 253 263 279 260 324 317 286 257 214 215 207 214 199 220 187 206 217 217 243 158 173 175 187 201 211 187 157
324 318 309 277 259 248 231 240 234 252 287 228 254 254 251 243 257 258 259 262 288 222 239 225 235 234 247 202 180 167 175 248 219 170 222 232 218 183 177 151 229 187 177 170
328 319 305 287 258 233 217 229 223 250 239 233 273 260 245 171 191 249 268 299 257 204 201 208 230 230 200 212 215 179 178 183 211 197 224 216 190 150 152 202 251 178 187 175
344 332 310 283 258 234 203 234 215 219 242 271 213 237 224 199 210 217 140 250 165 251 213 190 212 234 220 233 214 181 194 173 184 153 228 227 152 127 201 291 297 192 178 169
355 348 334 282 252 228 211 220 224 235 249 323 316 272 257 243 265 291 270 328 83 304 288 254 137 247 218 225 233 218 239 222 243 218 229 139 83 334 338 274 218 185 173 163
2 359 353 327 258 226 210 198 209 207 261 248 247 247 263 252 233 219 241 213 265 192 27 308 281 252 189 204 221 205 231 153 225 159 180 168 154 129 34 247 209 204 166 154
358 3 359 344 287 233 211 197 209 212 270 227 260 229 247 240 237 223 221 232 116 93 152 256 258 275 193 292 306 259 118 164 179 185 171 170 120 91 87 97 147 147 150 146
351 347 2 359 342 230 212 213 217 219 243 280 267 308 256 235 224 216 220 221 214 213 232 217 232 262 240 243 279 250 207 207 217 231 176 146 151 127 118 175 152 138 132 124
347 343 354 12 29 106 161 195 226 228 224 303 280 306 257 227 212 219 206 207 209 201 180 214 236 210 228 242 254 261 247 222 232 259 189 210 146 152 145 170 154 149 134 131
344 345 330 358 25 354 186 278 115 230 199 249 257 261 222 194 172 183 199 189 196 181 207 218 238 217 211 243 248 260 300 276 242 205 106 103 166 163 153 160 158 135 117 130
337 337 327 328 316 308 304 306 236 171 117 185 274 271 265 179 184 202 181 191 190 192 194 137 193 30 286 245 252 250 280 277 209 199 193 194 147 132 146 159 148 129 133 131
327 320 312 89 30 351 344 60 142 203 225 217 222 270 296 159 222 196 172 175 195 137 197 177 182 150 214 227 238 247 245 234 171 160 146 151 146 147 152 162 155 147 150 146
336 345 215 91 345 281 132 251 249 223 202 226 252 245 245 269 220 44 140 111 214 153 140 130 167 258 244 264 264 270 212 153 147 124 142 157 148 154 164 172 165 162 160 159
4 7 17 315 318 270 236 251 212 185 248 211 257 265 280 158 232 182 206 193 184 164 199 162 206 236 193 346 312 263 183 151 191 127 130 153 145 154 161 159 170 172 171 174
308 285 303 300 256 225 273 283 255 10 355 273 300 312 274 221 205 215 192 232 185 181 143 222 191 82 351 337 339 133 167 140 114 123 152 162 158 155 151 157 170 178 171 164
299 228 253 306 173 10 358 355 321 347 311 329 314 320 328 323 280 220 257 332 34 115 197 151 15 338 338 329 344 70 142 125 127 122 128 145 137 145 156 160 172 167 162 165
292 326 340 355 333 14 314 320 319 339 316 319 310 264 293 326 264 297 255 118 177 177 155 29 357 337 327 336 344 219 149 142 130 138 137 135 141 145 148 161 166 168 165 164
277 260 360 15 337 270 307 312 301 330 309 316 300 260 305 334 300 353 291 196 62 47 56 12 320 320 318 315 321 128 135 130 121 124 124 122 121 124 124 132 140 149 151 158
227 217 252 263 301 340 343 336 320 355 323 285 261 302 315 43 325 353 24 13 49 53 338 304 303 318 333 327 99 123 127 128 123 119 117 123 123 128 128 127 133 147 163 165
198 216 231 258 267 278 288 300 327 327 297 3 331 347 25 294 316 68 16 35 11 332 325 323 6 57 55 78 89 90 94 101 107 117 114 118 118 129 135 134 132 139 143 151